Wind_Speed
31 32 33 34 35 35 37 39 41 41 42 44 46 47 47 48 49 50 52 53 53 53 52 52 51 50 49 49 48 47 47 47 47 46 45 44 42 41 40 39 38 38 37 36
30 30 30 31 32 32 34 36 38 39 40 41 44 46 47 47 48 48 50 52 53 53 53 53 52 51 51 50 49 48 48 48 47 47 47 46 45 43 41 40 39 38 38 38
29 28 27 29 30 30 32 33 34 36 37 39 41 43 45 47 47 48 49 52 53 54 53 53 52 52 51 50 49 49 49 48 48 47 47 47 46 44 43 41 41 41 40 39
28 27 26 27 28 28 30 30 31 34 36 37 38 41 42 45 47 47 48 50 52 53 53 53 53 53 52 51 50 50 51 50 50 49 48 48 48 46 44 43 42 41 41 40
26 26 25 25 26 26 27 28 29 31 33 36 37 39 40 42 45 46 47 49 51 52 53 53 53 53 53 53 52 51 52 51 51 50 50 49 48 48 47 46 43 43 42 42
24 24 24 24 25 25 26 27 29 30 32 35 35 36 38 39 40 42 44 47 49 51 52 52 53 54 54 53 52 52 53 51 51 50 51 51 50 49 48 47 46 45 43 42
22 22 22 23 23 24 25 26 26 28 30 33 33 35 36 36 36 38 40 42 46 48 50 51 52 54 54 53 52 52 53 52 51 51 51 51 51 50 49 48 47 46 46 45
21 20 20 20 21 21 22 24 24 25 26 28 31 34 35 34 34 35 37 39 41 44 47 50 52 52 53 53 52 51 52 52 52 52 52 52 51 50 50 49 48 47 46 46
20 19 18 18 19 20 20 21 22 22 24 26 29 31 33 32 34 35 36 37 39 41 43 46 49 51 51 51 51 51 51 51 51 52 52 53 52 51 50 49 49 48 47 46
19 18 17 15 17 19 20 20 22 22 22 24 27 29 32 32 33 34 35 36 38 39 41 43 46 48 50 50 51 51 51 50 50 51 52 52 51 51 50 50 49 48 48 48
17 17 16 15 15 16 19 20 21 22 22 23 24 26 28 29 31 33 34 35 37 39 40 41 43 46 48 49 50 51 50 50 50 51 51 51 51 51 51 50 50 50 49 48
16 16 16 16 15 15 16 18 20 21 22 22 23 25 26 27 29 31 32 33 36 38 39 40 41 43 45 47 48 49 50 50 51 51 51 51 51 51 50 50 49 50 50 49
15 15 16 16 16 16 16 17 18 21 22 23 23 24 26 26 27 29 30 32 34 37 39 39 40 41 43 45 46 47 48 49 50 51 51 51 51 50 50 50 49 48 48 48
15 13 15 16 17 16 17 17 17 18 21 22 24 25 26 26 27 28 30 32 35 36 38 40 39 40 41 43 45 47 48 48 49 50 51 51 50 50 50 50 51 50 50 49
16 14 13 14 16 17 17 18 18 18 18 20 22 25 27 27 27 28 29 31 34 35 37 38 39 39 40 42 44 46 47 48 48 49 50 50 50 50 49 50 50 50 50 50
16 15 13 13 14 16 18 18 19 20 19 19 19 21 24 25 27 27 29 30 32 34 35 37 38 39 40 41 43 44 45 47 48 48 48 50 50 50 50 50 51 51 51 51
17 15 14 14 14 15 16 17 19 20 20 20 21 20 21 23 24 26 28 30 32 34 35 37 38 39 40 41 42 43 43 44 46 46 47 48 49 48 49 49 50 51 52 52
17 16 16 15 15 16 16 15 17 18 19 20 21 21 22 22 24 24 26 28 30 32 34 35 37 38 38 39 41 42 43 44 45 45 45 46 48 48 47 48 49 50 51 51
17 16 16 16 16 15 15 14 15 16 17 19 20 20 22 23 24 24 25 27 29 31 33 34 36 37 37 38 39 41 43 44 45 45 45 45 45 46 47 48 48 49 50 50
17 16 16 16 16 16 16 16 16 16 16 18 19 20 21 22 23 24 25 26 28 30 33 34 35 35 37 38 39 40 42 43 44 45 45 45 44 45 46 47 46 47 49 49
17 17 15 15 16 16 17 16 17 17 17 18 19 20 21 21 22 23 25 26 27 29 32 33 34 35 36 37 38 39 40 42 43 44 44 45 45 44 45 46 46 46 47 48
18 17 17 16 16 17 17 16 17 18 17 18 19 20 20 21 21 22 23 25 26 28 29 31 33 34 35 36 38 38 39 41 41 42 43 44 45 45 44 44 44 45 45 46
19 18 17 17 17 17 17 17 18 18 18 18 19 20 20 20 21 22 22 23 25 26 28 29 31 33 35 36 37 37 38 40 41 41 42 42 43 44 44 44 44 44 44 45
19 19 18 17 17 18 17 17 18 19 20 20 20 20 21 20 21 21 22 23 24 25 27 28 30 32 33 35 36 37 38 39 40 40 41 42 43 44 44 45 46 46 45 45
19 20 19 18 18 18 17 17 18 19 20 20 20 21 21 21 21 22 23 23 24 25 26 28 30 31 32 33 35 36 37 38 39 39 40 41 42 43 43 44 45 45 45 45
20 20 20 19 18 19 18 18 18 19 19 20 20 20 20 21 22 23 23 24 24 25 26 27 28 29 31 32 33 34 35 36 37 38 39 40 41 42 42 42 43 43 43 43
Wind_Direction
281 277 272 267 260 258 256 255 253 250 247 245 242 240 238 237 237 235 233 231 229 228 228 228 228 228 229 229 229 228 229 229 229 229 229 230 232 233 233 233 234 234 234 234
283 279 275 267 259 258 257 256 254 250 247 245 243 240 238 236 236 235 233 231 229 227 227 227 228 228 228 228 228 229 229 229 230 230 230 230 232 232 233 234 235 235 236 235
286 280 274 267 260 260 256 257 255 252 247 246 244 240 237 236 236 235 234 232 230 228 227 226 226 227 227 227 229 229 229 229 229 230 230 230 231 232 233 234 235 236 237 236
287 279 270 264 260 261 257 256 256 252 248 246 245 244 238 236 235 234 233 231 228 227 227 226 226 226 227 228 229 230 229 229 229 230 230 230 231 232 233 234 236 236 238 239
289 281 271 263 262 261 258 257 255 252 249 247 245 245 240 237 235 233 232 231 228 227 226 226 226 227 227 229 230 229 228 228 228 229 230 230 231 232 233 234 236 237 239 240
290 281 271 265 262 260 255 255 254 252 250 247 243 244 242 238 235 233 232 230 227 226 227 226 226 227 227 229 230 229 229 229 229 230 230 230 231 232 234 235 236 237 239 240
290 283 273 265 258 256 254 254 254 251 249 248 243 242 241 238 236 233 231 230 228 226 226 226 227 227 227 228 230 229 229 230 230 231 231 230 231 232 234 235 236 238 240 241
292 286 276 268 260 257 255 254 252 250 250 248 242 240 238 237 234 231 229 227 227 227 226 227 227 227 228 228 229 229 230 230 230 231 230 230 231 232 234 235 237 238 240 241
293 285 277 270 262 255 254 251 248 247 248 246 241 238 237 234 231 229 225 224 225 226 227 227 226 226 227 228 229 229 230 230 231 231 231 231 231 232 234 235 237 238 240 242
295 284 275 270 263 255 253 250 246 247 247 245 243 239 238 234 230 226 224 223 223 223 225 226 226 226 226 228 229 228 229 230 230 230 230 231 231 232 234 235 237 239 241 242
294 283 274 267 262 257 249 244 246 247 244 242 241 242 239 236 230 225 223 224 224 223 224 225 225 225 225 226 228 229 229 230 230 230 230 230 231 233 234 236 238 239 241 242
299 283 275 269 263 257 252 248 246 246 244 243 245 244 239 236 232 228 226 224 223 223 223 224 225 226 226 226 226 228 228 229 230 230 231 231 232 234 235 236 238 240 241 243
308 287 277 269 263 254 250 250 250 248 245 244 246 244 241 237 235 230 229 227 225 223 223 225 226 228 227 226 226 227 228 229 230 230 231 232 233 234 235 237 239 240 241 243
310 296 281 272 266 259 252 251 254 251 246 243 244 244 244 240 237 235 233 231 229 226 225 225 226 228 228 227 226 227 227 229 230 231 232 233 235 236 238 239 241 242 243 244
311 302 290 277 269 262 254 250 251 250 250 249 247 246 245 241 239 238 235 233 230 228 227 227 227 227 229 229 228 228 228 230 231 232 233 234 235 237 238 240 242 243 244 244
311 303 296 287 278 270 259 253 251 251 252 252 251 248 244 240 240 238 235 233 232 231 230 229 229 229 229 229 230 231 231 231 232 233 234 235 237 239 240 241 242 243 244 245
310 304 297 294 285 279 269 257 254 254 251 250 251 250 246 240 239 239 236 234 233 234 233 231 231 232 231 231 232 233 233 233 234 235 235 236 237 238 239 241 242 243 245 245
311 302 297 295 290 286 277 264 259 256 253 250 249 248 247 245 243 241 237 236 235 234 233 233 233 233 232 233 234 234 234 234 235 236 236 238 238 239 240 242 243 243 244 245
311 304 296 292 289 286 279 270 264 259 254 250 249 248 246 244 244 243 240 238 238 235 234 234 234 235 234 235 235 236 236 237 237 237 238 239 240 240 241 242 243 243 244 245
311 306 297 291 287 284 281 271 265 261 257 253 254 251 246 245 246 243 242 240 240 238 236 235 235 235 235 236 237 238 237 238 239 239 240 240 241 242 243 243 243 243 244 245
311 304 297 294 290 286 281 276 269 266 262 256 255 253 247 245 247 244 243 242 241 240 238 237 236 236 235 236 237 239 240 240 240 241 242 242 243 244 244 244 244 244 245 246
311 306 298 293 292 290 286 281 273 267 262 259 255 252 252 248 246 246 245 243 241 240 239 238 237 238 237 238 239 240 241 241 241 242 243 243 244 245 245 245 246 246 246 247
310 307 300 294 292 289 287 281 275 269 263 261 258 254 253 252 248 247 246 243 241 241 240 240 240 241 241 240 240 241 242 243 243 243 243 244 245 246 246 246 246 247 247 248
308 306 300 294 291 289 287 282 278 272 268 264 261 258 256 255 251 249 248 246 245 244 244 242 242 243 242 242 242 242 243 243 244 243 244 244 245 246 248 248 249 249 249 250
307 305 301 295 292 290 287 283 281 278 273 269 265 261 258 255 253 250 249 248 247 247 247 246 245 244 243 243 244 244 244 244 244 245 246 246 246 247 248 248 249 249 250 250
303 302 301 296 292 290 286 281 280 279 276 272 268 264 260 257 254 253 252 249 248 248 247 247 247 245 244 245 245 246 245 245 245 245 246 247 247 247 248 247 247 248 248 249
Height
5624 5622 5620 5619 5620 5622 5624 5625 5627 5630 5631 5633 5636 5641 5646 5650 5655 5660 5666 5673 5680 5687 5694 5701 5707 5714 5719 5725 5731 5736 5741 5747 5752 5757 5763 5767 5771 5775 5779 5782 5786 5789 5793 5796
5614 5611 5610 5609 5609 5611 5612 5614 5615 5618 5620 5622 5624 5629 5634 5638 5643 5649 5654 5660 5667 5675 5682 5689 5696 5703 5709 5715 5721 5726 5731 5737 5742 5747 5753 5758 5763 5767 5771 5774 5778 5781 5785 5789
5603 5602 5600 5599 5600 5601 5603 5604 5606 5607 5609 5611 5614 5618 5622 5627 5631 5636 5642 5648 5656 5663 5671 5678 5685 5692 5698 5704 5710 5715 5721 5726 5732 5737 5743 5748 5754 5758 5762 5766 5770 5774 5777 5781
5594 5592 5591 5591 5592 5593 5594 5596 5597 5598 5600 5602 5604 5606 5612 5616 5620 5625 5631 5637 5644 5652 5659 5667 5674 5681 5687 5694 5699 5704 5710 5715 5721 5727 5733 5739 5744 5750 5754 5758 5762 5766 5770 5774
5586 5584 5583 5584 5584 5585 5586 5587 5589 5589 5591 5593 5595 5596 5601 5605 5609 5615 5621 5626 5633 5641 5648 5656 5663 5670 5676 5682 5688 5693 5699 5704 5710 5716 5722 5728 5734 5740 5745 5750 5754 5758 5762 5765
5579 5577 5576 5576 5576 5577 5578 5580 5581 5581 5582 5583 5586 5588 5591 5595 5600 5606 5611 5617 5623 5630 5637 5645 5652 5659 5666 5671 5677 5683 5689 5694 5700 5706 5712 5718 5725 5730 5736 5741 5745 5749 5753 5757
5573 5571 5569 5570 5570 5571 5571 5573 5573 5572 5572 5574 5578 5579 5583 5587 5592 5597 5602 5608 5613 5620 5627 5634 5641 5648 5655 5661 5667 5673 5679 5685 5691 5696 5702 5709 5715 5721 5726 5731 5736 5740 5744 5748
5567 5565 5564 5563 5563 5564 5564 5566 5567 5567 5567 5568 5570 5572 5577 5580 5585 5589 5594 5599 5605 5611 5617 5624 5631 5638 5645 5651 5657 5663 5669 5675 5681 5686 5692 5698 5705 5711 5716 5721 5726 5731 5735 5739
5561 5559 5558 5557 5557 5558 5558 5558 5560 5561 5561 5562 5563 5566 5570 5573 5578 5582 5587 5592 5597 5602 5608 5615 5621 5628 5635 5641 5648 5653 5659 5665 5671 5676 5682 5689 5695 5701 5706 5711 5716 5721 5725 5729
5555 5554 5554 5553 5553 5553 5553 5554 5554 5555 5555 5556 5558 5561 5564 5567 5571 5576 5580 5585 5590 5595 5600 5606 5612 5618 5625 5632 5638 5644 5650 5656 5662 5667 5673 5679 5685 5691 5696 5701 5706 5711 5715 5719
5551 5550 5549 5548 5548 5547 5548 5549 5549 5549 5550 5552 5553 5557 5558 5562 5565 5569 5574 5578 5583 5588 5593 5598 5603 5609 5615 5622 5628 5634 5641 5647 5652 5658 5663 5669 5675 5681 5686 5691 5695 5700 5704 5708
5547 5545 5544 5544 5544 5543 5543 5543 5544 5545 5546 5547 5548 5553 5553 5556 5559 5563 5567 5571 5576 5580 5585 5591 5596 5601 5606 5612 5618 5625 5631 5637 5642 5648 5654 5659 5665 5670 5676 5680 5685 5689 5694 5697
5543 5541 5540 5539 5541 5540 5539 5538 5539 5540 5541 5542 5544 5549 5548 5551 5554 5557 5560 5564 5569 5573 5578 5583 5588 5593 5598 5604 5609 5615 5621 5627 5633 5638 5644 5650 5655 5660 5665 5670 5674 5678 5682 5686
5539 5537 5536 5536 5534 5534 5534 5534 5534 5535 5536 5537 5539 5542 5543 5545 5548 5551 5555 5558 5562 5566 5571 5576 5581 5585 5590 5595 5600 5606 5611 5617 5623 5628 5634 5639 5645 5650 5655 5659 5663 5667 5671 5675
5535 5533 5532 5530 5529 5529 5529 5529 5530 5530 5531 5533 5534 5536 5537 5539 5541 5544 5548 5551 5555 5559 5564 5568 5573 5577 5581 5586 5591 5597 5602 5607 5613 5618 5623 5629 5634 5638 5642 5647 5651 5655 5659 5663
5531 5529 5528 5527 5525 5524 5524 5524 5525 5525 5526 5527 5528 5530 5531 5533 5535 5538 5541 5544 5548 5552 5556 5561 5565 5569 5573 5578 5582 5587 5592 5598 5603 5607 5612 5617 5622 5627 5631 5635 5639 5644 5647 5651
5527 5525 5524 5523 5521 5520 5520 5520 5520 5520 5521 5522 5523 5525 5526 5527 5529 5531 5534 5537 5541 5545 5549 5553 5557 5561 5565 5569 5574 5578 5583 5588 5592 5597 5601 5606 5611 5615 5620 5624 5628 5632 5635 5639
5524 5522 5520 5518 5518 5516 5517 5515 5515 5515 5516 5516 5517 5519 5520 5521 5523 5525 5527 5530 5534 5537 5541 5545 5549 5553 5557 5561 5565 5569 5574 5578 5582 5587 5591 5595 5599 5604 5607 5611 5615 5619 5622 5626
5520 5518 5516 5514 5513 5512 5512 5511 5510 5510 5510 5511 5511 5512 5513 5515 5516 5518 5521 5524 5527 5530 5533 5536 5540 5544 5548 5551 5555 5560 5564 5568 5572 5576 5580 5584 5588 5592 5596 5600 5603 5606 5610 5613
5516 5514 5512 5510 5508 5507 5508 5506 5505 5506 5506 5505 5505 5506 5507 5508 5510 5513 5514 5516 5518 5521 5524 5527 5531 5535 5539 5542 5546 5550 5554 5558 5562 5565 5569 5573 5577 5580 5584 5588 5591 5594 5597 5600
5512 5509 5507 5505 5503 5503 5503 5501 5501 5502 5502 5500 5500 5500 5501 5502 5504 5506 5507 5508 5510 5513 5516 5519 5522 5526 5529 5533 5537 5540 5544 5547 5551 5555 5558 5562 5566 5569 5572 5576 5579 5582 5585 5588
5507 5505 5503 5501 5499 5500 5497 5496 5496 5496 5495 5494 5494 5494 5495 5496 5497 5498 5499 5501 5503 5505 5507 5510 5514 5517 5520 5524 5527 5531 5534 5537 5540 5544 5547 5551 5554 5557 5561 5564 5567 5570 5573 5576
5503 5501 5498 5497 5497 5493 5491 5490 5489 5489 5489 5488 5488 5489 5489 5490 5491 5492 5493 5494 5496 5498 5500 5503 5505 5508 5512 5515 5518 5521 5524 5527 5530 5533 5536 5539 5543 5546 5549 5552 5555 5558 5560 5564
5498 5495 5492 5491 5490 5487 5486 5484 5483 5483 5482 5482 5482 5482 5483 5483 5484 5485 5486 5488 5489 5491 5493 5495 5497 5500 5503 5505 5508 5511 5514 5517 5519 5522 5525 5528 5531 5534 5537 5540 5543 5546 5549 5551
5493 5490 5487 5485 5484 5482 5480 5479 5478 5477 5476 5476 5476 5475 5476 5477 5477 5478 5479 5481 5482 5484 5486 5487 5489 5492 5494 5496 5499 5501 5504 5507 5509 5512 5515 5517 5520 5523 5525 5528 5531 5534 5537 5540
5487 5485 5482 5481 5479 5477 5475 5473 5472 5471 5470 5469 5469 5469 5469 5470 5471 5472 5473 5474 5475 5477 5478 5480 5481 5483 5485 5487 5489 5492 5494 5497 5499 5502 5504 5506 5509 5511 5514 5516 5519 5522 5525 5528